| time (UTC) | temp F | wind direction | speed knots | gust knots | rain 1hr in | rain 24hr in | rain mn in | humidity % | barometer mb |
| 20260507232530 | 58 | 29 | 3.5 | 7.0 | 0.00 | 0.00 | 0.00 | 84 | 1015.7 |
| 20260507232031 | 58 | 0 | 3.5 | 7.0 | 0.00 | 0.00 | 0.00 | 84 | 1015.7 |
| 20260507231530 | 58 | 34 | 2.6 | 5.2 | 0.00 | 0.00 | 0.00 | 84 | 1015.6 |
| 20260507230531 | 58 | 5 | 1.7 | 5.2 | 0.00 | 0.00 | 0.00 | 84 | 1015.5 |
| 20260507230032 | 58 | 29 | 0.9 | 3.5 | 0.00 | 0.00 | 0.00 | 84 | 1015.4 |
| 20260507225532 | 58 | 54 | 0.9 | 3.5 | 0.00 | 0.00 | 0.00 | 84 | 1015.4 |
| 20260507225026 | 58 | 40 | 0.0 | 3.5 | 0.00 | 0.00 | 0.00 | 84 | 1015.5 |
| 20260507224526 | 58 | 87 | 0.0 | 0.0 | 0.00 | 0.00 | 0.00 | 84 | 1015.5 |
| 20260507224021 | 58 | 46 | 0.0 | 0.0 | 0.00 | 0.00 | 0.00 | 84 | 1015.5 |
| 20260507223514 | 58 | 38 | 0.0 | 0.0 | 0.00 | 0.00 | 0.00 | 84 | 1015.6 |
| 20260507222511 | 58 | 32 | 0.0 | 0.0 | 0.00 | 0.00 | 0.00 | 83 | 1015.5 |
| 20260507221507 | 59 | 36 | 0.0 | 0.0 | 0.00 | 0.00 | 0.00 | 83 | 1015.4 |
| 20260507221006 | 59 | 36 | 0.0 | 0.0 | 0.00 | 0.00 | 0.00 | 82 | 1015.4 |
| 20260507220507 | 59 | 33 | 0.0 | 0.0 | 0.00 | 0.00 | 0.00 | 82 | 1015.3 |
| 20260507220005 | 59 | 61 | 0.0 | 0.0 | 0.00 | 0.00 | 0.00 | 82 | 1015.3 |
| 20260507215003 | 59 | 65 | 0.0 | 0.0 | 0.00 | 0.00 | 0.00 | 81 | 1015.4 |
| 20260507214503 | 59 | 98 | 0.0 | 0.9 | 0.00 | 0.00 | 0.00 | 81 | 1015.4 |
| 20260507214002 | 59 | 98 | 0.0 | 0.9 | 0.00 | 0.00 | 0.00 | 80 | 1015.2 |
| 20260507213003 | 60 | 33 | 0.9 | 3.5 | 0.00 | 0.00 | 0.00 | 79 | 1015.1 |
| 20260507212003 | 60 | 36 | 1.7 | 4.3 | 0.00 | 0.00 | 0.00 | 79 | 1015.2 |
| 20260507211503 | 60 | 53 | 1.7 | 5.2 | 0.00 | 0.00 | 0.00 | 79 | 1015.2 |
| 20260507211002 | 60 | 67 | 0.9 | 5.2 | 0.00 | 0.00 | 0.00 | 78 | 1015.2 |
| 20260507210502 | 60 | 50 | 0.0 | 0.0 | 0.00 | 0.00 | 0.00 | 78 | 1015.3 |
| 20260507210002 | 60 | 40 | 0.0 | 0.0 | 0.00 | 0.00 | 0.00 | 78 | 1015.3 |
| 20260507204949 | 60 | 17 | 1.7 | 4.3 | 0.00 | 0.00 | 0.00 | 78 | 1015.2 |
| 20260507204444 | 60 | 15 | 2.6 | 4.3 | 0.00 | 0.00 | 0.00 | 77 | 1015.1 |
| 20260507203938 | 60 | 9 | 1.7 | 4.3 | 0.00 | 0.00 | 0.00 | 76 | 1015.0 |
| 20260507203433 | 61 | 28 | 0.0 | 4.3 | 0.00 | 0.00 | 0.00 | 75 | 1015.1 |
| 20260507202931 | 61 | 171 | 0.0 | 0.0 | 0.00 | 0.00 | 0.00 | 75 | 1014.9 |
| 20260507202431 | 61 | 171 | 0.0 | 0.0 | 0.00 | 0.00 | 0.00 | 74 | 1014.8 |
| 20260507201931 | 61 | 171 | 0.0 | 0.0 | 0.00 | 0.00 | 0.00 | 74 | 1014.7 |
| 20260507201432 | 61 | 186 | 0.0 | 0.0 | 0.00 | 0.00 | 0.00 | 73 | 1014.7 |
| 20260507200930 | 62 | 161 | 0.0 | 0.0 | 0.00 | 0.00 | 0.00 | 73 | 1014.6 |
| 20260507200432 | 62 | 175 | 0.0 | 0.0 | 0.00 | 0.00 | 0.00 | 73 | 1014.6 |
| 20260507195931 | 62 | 157 | 0.0 | 0.0 | 0.00 | 0.00 | 0.00 | 72 | 1014.6 |
| 20260507195430 | 62 | 163 | 0.0 | 4.3 | 0.00 | 0.00 | 0.00 | 72 | 1014.5 |
| 20260507194930 | 62 | 155 | 0.0 | 4.3 | 0.00 | 0.00 | 0.00 | 72 | 1014.5 |
| 20260507194432 | 63 | 144 | 0.0 | 3.5 | 0.00 | 0.00 | 0.00 | 72 | 1014.6 |
| 20260507193931 | 63 | 121 | 0.9 | 6.1 | 0.00 | 0.00 | 0.00 | 72 | 1014.5 |
| 20260507193431 | 63 | 175 | 0.9 | 6.1 | 0.00 | 0.00 | 0.00 | 72 | 1014.4 |
| 20260507192930 | 63 | 134 | 0.0 | 0.0 | 0.00 | 0.00 | 0.00 | 71 | 1014.3 |
| 20260507191930 | 64 | 156 | 1.7 | 5.2 | 0.00 | 0.00 | 0.00 | 71 | 1014.2 |
| 20260507191431 | 64 | 113 | 0.9 | 4.3 | 0.00 | 0.00 | 0.00 | 69 | 1014.0 |
| 20260507190927 | 64 | 148 | 0.9 | 5.2 | 0.00 | 0.00 | 0.00 | 69 | 1014.0 |
| 20260507185914 | 65 | 163 | 1.7 | 5.2 | 0.00 | 0.00 | 0.00 | 70 | 1013.7 |
| 20260507185410 | 65 | 142 | 1.7 | 6.1 | 0.00 | 0.00 | 0.00 | 70 | 1013.7 |
| 20260507184904 | 65 | 119 | 0.9 | 6.1 | 0.00 | 0.00 | 0.00 | 70 | 1013.6 |
| 20260507184403 | 65 | 178 | 0.9 | 6.1 | 0.00 | 0.00 | 0.00 | 69 | 1013.6 |
| 20260507183904 | 66 | 160 | 1.7 | 6.1 | 0.00 | 0.00 | 0.00 | 69 | 1013.5 |
| 20260507183403 | 66 | 119 | 1.7 | 6.1 | 0.00 | 0.00 | 0.00 | 67 | 1013.4 |
| 20260507182903 | 66 | 154 | 0.9 | 4.3 | 0.00 | 0.00 | 0.00 | 67 | 1013.3 |
| 20260507182404 | 66 | 142 | 0.0 | 4.3 | 0.00 | 0.00 | 0.00 | 66 | 1013.3 |
| 20260507181903 | 66 | 160 | 0.9 | 7.0 | 0.00 | 0.00 | 0.00 | 66 | 1013.2 |
| 20260507180903 | 67 | 137 | 0.9 | 5.2 | 0.00 | 0.00 | 0.00 | 69 | 1013.1 |
| 20260507180402 | 67 | 115 | 0.9 | 6.1 | 0.00 | 0.00 | 0.00 | 71 | 1013.0 |
| 20260507175903 | 67 | 115 | 1.7 | 6.1 | 0.00 | 0.00 | 0.00 | 70 | 1012.9 |
| 20260507175402 | 67 | 82 | 0.9 | 6.1 | 0.00 | 0.00 | 0.00 | 69 | 1012.8 |
| 20260507174903 | 67 | 88 | 0.0 | 2.6 | 0.00 | 0.00 | 0.00 | 68 | 1012.7 |
| 20260507173902 | 68 | 119 | 1.7 | 7.8 | 0.00 | 0.00 | 0.00 | 67 | 1012.5 |
| 20260507173359 | 68 | 89 | 1.7 | 7.8 | 0.00 | 0.00 | 0.00 | 64 | 1012.4 |
| 20260507172901 | 69 | 81 | 0.0 | 6.1 | 0.00 | 0.00 | 0.00 | 61 | 1012.4 |
| 20260507172359 | 69 | 134 | 0.0 | 0.0 | 0.00 | 0.00 | 0.00 | 61 | 1012.3 |
| 20260507171859 | 69 | 109 | 0.0 | 0.0 | 0.00 | 0.00 | 0.00 | 61 | 1012.4 |
| 20260507170859 | 69 | 87 | 0.0 | 0.9 | 0.00 | 0.00 | 0.00 | 59 | 1012.2 |
| 20260507165859 | 69 | 32 | 0.9 | 4.3 | 0.00 | 0.00 | 0.00 | 58 | 1012.2 |
| 20260507165401 | 69 | 5 | 0.0 | 4.3 | 0.00 | 0.00 | 0.00 | 57 | 1012.2 |
| 20260507164900 | 69 | 32 | 0.0 | 1.7 | 0.00 | 0.00 | 0.00 | 57 | 1012.2 |
| 20260507164358 | 69 | 38 | 0.0 | 2.6 | 0.00 | 0.00 | 0.00 | 57 | 1012.2 |
| 20260507162859 | 71 | 296 | 0.0 | 0.0 | 0.00 | 0.00 | 0.00 | 48 | 1012.2 |
| 20260507162359 | 71 | 250 | 0.0 | 0.0 | 0.00 | 0.00 | 0.00 | 49 | 1012.3 |
| 20260507161859 | 71 | 237 | 0.9 | 6.1 | 0.00 | 0.00 | 0.00 | 48 | 1012.2 |
| 20260507161358 | 71 | 210 | 0.9 | 10.4 | 0.00 | 0.00 | 0.00 | 47 | 1012.1 |
| 20260507160856 | 72 | 227 | 1.7 | 10.4 | 0.00 | 0.00 | 0.00 | 47 | 1012.1 |
| 20260507160350 | 72 | 197 | 0.0 | 7.8 | 0.00 | 0.00 | 0.00 | 47 | 1012.1 |
| 20260507155845 | 72 | 234 | 0.9 | 6.1 | 0.00 | 0.00 | 0.00 | 47 | 1012.1 |
| 20260507154832 | 73 | 240 | 1.7 | 7.0 | 0.00 | 0.00 | 0.00 | 44 | 1012.2 |
| 20260507154331 | 73 | 211 | 1.7 | 7.0 | 0.00 | 0.00 | 0.00 | 45 | 1012.1 |
| 20260507153831 | 73 | 223 | 1.7 | 9.6 | 0.00 | 0.00 | 0.00 | 46 | 1012.0 |
| 20260507153330 | 73 | 200 | 1.7 | 9.6 | 0.00 | 0.00 | 0.00 | 46 | 1012.0 |
| 20260507152834 | 73 | 205 | 1.7 | 6.1 | 0.00 | 0.00 | 0.00 | 46 | 1012.0 |
| 20260507152330 | 72 | 225 | 1.7 | 7.0 | 0.00 | 0.00 | 0.00 | 46 | 1012.0 |
| 20260507151831 | 72 | 215 | 2.6 | 9.6 | 0.00 | 0.00 | 0.00 | 46 | 1012.0 |
| 20260507151331 | 73 | 242 | 3.5 | 10.4 | 0.00 | 0.00 | 0.00 | 46 | 1011.9 |
| 20260507145831 | 74 | 189 | 1.7 | 12.2 | 0.00 | 0.00 | 0.00 | 45 | 1011.9 |
| 20260507145331 | 74 | 218 | 4.3 | 12.2 | 0.00 | 0.00 | 0.00 | 44 | 1012.0 |
| 20260507144330 | 75 | 215 | 1.7 | 12.2 | 0.00 | 0.00 | 0.00 | 43 | 1012.0 |
| 20260507143832 | 75 | 204 | 0.9 | 8.7 | 0.00 | 0.00 | 0.00 | 45 | 1012.0 |
| 20260507143330 | 74 | 225 | 1.7 | 8.7 | 0.00 | 0.00 | 0.00 | 45 | 1012.0 |
| 20260507142830 | 74 | 252 | 3.5 | 11.3 | 0.00 | 0.00 | 0.00 | 46 | 1012.1 |
| 20260507142328 | 74 | 194 | 2.6 | 11.3 | 0.00 | 0.00 | 0.00 | 46 | 1012.1 |
| 20260507141320 | 73 | 175 | 0.0 | 0.0 | 0.00 | 0.00 | 0.00 | 46 | 1012.2 |
| 20260507140820 | 73 | 236 | 0.0 | 0.9 | 0.00 | 0.00 | 0.00 | 44 | 1012.2 |
| 20260507140421 | 74 | 237 | 2.6 | 10.4 | 0.00 | 0.00 | 0.00 | 44 | 1012.2 |
| 20260507135419 | 73 | 190 | 0.0 | 2.6 | 0.00 | 0.00 | 0.00 | 47 | 1012.2 |
| 20260507134918 | 72 | 284 | 0.0 | 0.0 | 0.00 | 0.00 | 0.00 | 45 | 1012.2 |
| 20260507133915 | 74 | 229 | 1.7 | 9.6 | 0.00 | 0.00 | 0.00 | 44 | 1012.4 |
| 20260507132912 | 74 | 274 | 0.9 | 7.8 | 0.00 | 0.00 | 0.00 | 45 | 1012.3 |
| 20260507132411 | 74 | 215 | 1.7 | 8.7 | 0.00 | 0.00 | 0.00 | 45 | 1012.4 |
| 20260507131911 | 74 | 231 | 1.7 | 9.6 | 0.00 | 0.00 | 0.00 | 45 | 1012.4 |
| 20260507131411 | 74 | 219 | 0.9 | 9.6 | 0.00 | 0.00 | 0.00 | 46 | 1012.4 |
| 20260507130910 | 74 | 217 | 1.7 | 9.6 | 0.00 | 0.01 | 0.00 | 46 | 1012.4 |
| 20260507130409 | 74 | 206 | 3.5 | 9.6 | 0.00 | 0.02 | 0.00 | 45 | 1012.4 |
| 20260507125908 | 74 | 163 | 2.6 | 7.0 | 0.00 | 0.06 | 0.00 | 47 | 1012.4 |
| 20260507124907 | 72 | 223 | 1.7 | 9.6 | 0.00 | 0.15 | 0.00 | 50 | 1012.4 |
| 20260507124407 | 71 | 246 | 1.7 | 8.7 | 0.00 | 0.17 | 0.00 | 51 | 1012.5 |
| 20260507123403 | 71 | 235 | 0.0 | 4.3 | 0.00 | 0.18 | 0.00 | 50 | 1012.5 |
| 20260507122857 | 73 | 248 | 0.9 | 6.1 | 0.00 | 0.18 | 0.00 | 48 | 1012.4 |
| 20260507121844 | 73 | 223 | 2.6 | 9.6 | 0.00 | 0.18 | 0.00 | 50 | 1012.5 |
| 20260507121342 | 73 | 186 | 3.5 | 12.2 | 0.00 | 0.18 | 0.00 | 51 | 1012.5 |
| 20260507120838 | 73 | 185 | 3.5 | 12.2 | 0.00 | 0.18 | 0.00 | 50 | 1012.6 |
| 20260507115604 | 72 | 259 | 1.7 | 9.6 | 0.00 | 0.18 | 0.00 | 54 | 1012.6 |
| 20260507115103 | 72 | 272 | 1.7 | 10.4 | 0.00 | 0.18 | 0.00 | 54 | 1012.6 |
| 20260507114603 | 71 | 229 | 1.7 | 10.4 | 0.00 | 0.18 | 0.00 | 53 | 1012.7 |
| 20260507113103 | 71 | 259 | 1.7 | 7.8 | 0.00 | 0.18 | 0.00 | 54 | 1012.7 |
| 20260507112103 | 71 | 169 | 1.7 | 7.8 | 0.00 | 0.18 | 0.00 | 55 | 1012.9 |
| 20260507111603 | 71 | 239 | 0.9 | 7.8 | 0.00 | 0.18 | 0.00 | 53 | 1012.9 |
| 20260507111103 | 71 | 215 | 1.7 | 9.6 | 0.00 | 0.18 | 0.00 | 54 | 1013.0 |
| 20260507110602 | 71 | 207 | 2.6 | 10.4 | 0.00 | 0.18 | 0.00 | 54 | 1013.0 |
| 20260507110103 | 71 | 207 | 3.5 | 10.4 | 0.00 | 0.18 | 0.00 | 55 | 1013.0 |
| 20260507105609 | 71 | 205 | 2.6 | 10.4 | 0.00 | 0.18 | 0.00 | 58 | 1013.1 |
| 20260507105103 | 70 | 236 | 3.5 | 9.6 | 0.00 | 0.18 | 0.00 | 58 | 1013.2 |
| 20260507104604 | 69 | 185 | 5.2 | 10.4 | 0.00 | 0.18 | 0.00 | 60 | 1013.1 |
| 20260507104103 | 70 | 237 | 3.5 | 10.4 | 0.00 | 0.18 | 0.00 | 61 | 1013.3 |
| 20260507103602 | 69 | 182 | 1.7 | 8.7 | 0.00 | 0.18 | 0.00 | 61 | 1013.3 |
| 20260507103103 | 68 | 186 | 1.7 | 8.7 | 0.00 | 0.18 | 0.00 | 61 | 1013.4 |
| 20260507102602 | 68 | 213 | 0.9 | 8.7 | 0.00 | 0.18 | 0.00 | 59 | 1013.4 |
| 20260507102105 | 68 | 257 | 1.7 | 8.7 | 0.00 | 0.18 | 0.00 | 58 | 1013.4 |
| 20260507101602 | 69 | 240 | 1.7 | 7.8 | 0.00 | 0.18 | 0.00 | 56 | 1013.5 |
| 20260507101102 | 69 | 240 | 1.7 | 7.8 | 0.00 | 0.18 | 0.00 | 58 | 1013.5 |
| 20260507100603 | 69 | 188 | 1.7 | 10.4 | 0.00 | 0.18 | 0.00 | 60 | 1013.5 |
| 20260507095603 | 67 | 216 | 0.9 | 6.1 | 0.00 | 0.18 | 0.00 | 64 | 1013.5 |
| 20260507094603 | 67 | 227 | 0.9 | 7.0 | 0.00 | 0.18 | 0.00 | 67 | 1013.5 |
| 20260507094102 | 67 | 175 | 0.9 | 7.0 | 0.00 | 0.18 | 0.00 | 70 | 1013.5 |
| 20260507093603 | 66 | 148 | 0.0 | 1.7 | 0.00 | 0.18 | 0.00 | 71 | 1013.5 |
| 20260507093102 | 67 | 297 | 0.0 | 5.2 | 0.00 | 0.18 | 0.00 | 70 | 1013.6 |
| 20260507092558 | 66 | 178 | 0.9 | 5.2 | 0.00 | 0.19 | 0.00 | 72 | 1013.5 |
| 20260507092059 | 66 | 204 | 0.9 | 6.1 | 0.00 | 0.19 | 0.00 | 73 | 1013.5 |
| 20260507090558 | 65 | 200 | 0.9 | 5.2 | 0.00 | 0.20 | 0.00 | 73 | 1013.5 |
| 20260507090059 | 65 | 213 | 0.9 | 5.2 | 0.00 | 0.20 | 0.00 | 72 | 1013.5 |
| 20260507085557 | 65 | 222 | 0.9 | 6.1 | 0.00 | 0.20 | 0.00 | 70 | 1013.5 |
| 20260507085058 | 65 | 217 | 0.9 | 6.1 | 0.00 | 0.20 | 0.00 | 70 | 1013.5 |
| 20260507084558 | 65 | 203 | 0.0 | 3.5 | 0.00 | 0.20 | 0.00 | 72 | 1013.4 |
| 20260507084059 | 65 | 304 | 0.0 | 1.7 | 0.00 | 0.20 | 0.00 | 71 | 1013.3 |
| 20260507083600 | 65 | 290 | 0.0 | 2.6 | 0.00 | 0.20 | 0.00 | 70 | 1013.4 |
| 20260507083058 | 65 | 246 | 1.7 | 7.0 | 0.00 | 0.20 | 0.00 | 71 | 1013.4 |
| 20260507082558 | 65 | 262 | 1.7 | 7.0 | 0.00 | 0.20 | 0.00 | 72 | 1013.3 |
| 20260507081558 | 65 | 229 | 0.9 | 4.3 | 0.00 | 0.20 | 0.00 | 75 | 1013.2 |
| 20260507080558 | 65 | 206 | 1.7 | 5.2 | 0.00 | 0.20 | 0.00 | 78 | 1013.3 |
| 20260507080058 | 64 | 197 | 1.7 | 5.2 | 0.00 | 0.20 | 0.00 | 79 | 1013.3 |
| 20260507075600 | 64 | 196 | 1.7 | 3.5 | 0.00 | 0.20 | 0.00 | 81 | 1013.3 |
| 20260507075058 | 63 | 215 | 1.7 | 4.3 | 0.00 | 0.20 | 0.00 | 82 | 1013.4 |
| 20260507074055 | 63 | 240 | 0.9 | 3.5 | 0.00 | 0.20 | 0.00 | 84 | 1013.3 |
| 20260507073549 | 63 | 163 | 0.9 | 3.5 | 0.00 | 0.20 | 0.00 | 87 | 1013.2 |
| 20260507073050 | 62 | 163 | 0.9 | 3.5 | 0.00 | 0.20 | 0.00 | 88 | 1013.2 |
| 20260507072548 | 61 | 224 | 0.9 | 1.7 | 0.00 | 0.20 | 0.00 | 88 | 1013.2 |
| 20260507072047 | 61 | 224 | 0.9 | 1.7 | 0.00 | 0.20 | 0.00 | 89 | 1013.2 |
| 20260507071551 | 61 | 225 | 0.9 | 1.7 | 0.00 | 0.20 | 0.00 | 89 | 1013.2 |
| 20260507071046 | 61 | 225 | 0.9 | 2.6 | 0.00 | 0.20 | 0.00 | 90 | 1013.1 |
| 20260507070543 | 61 | 225 | 1.7 | 2.6 | 0.00 | 0.20 | 0.00 | 90 | 1013.1 |
| 20260507065540 | 60 | 215 | 0.9 | 2.6 | 0.00 | 0.20 | 0.00 | 91 | 1013.0 |
| 20260507065039 | 60 | 249 | 0.9 | 2.6 | 0.00 | 0.20 | 0.00 | 91 | 1013.0 |
| 20260507064540 | 60 | 247 | 0.9 | 2.6 | 0.00 | 0.20 | 0.00 | 92 | 1012.9 |
| 20260507064040 | 59 | 246 | 0.9 | 3.5 | 0.00 | 0.20 | 0.00 | 92 | 1013.0 |
| 20260507062536 | 59 | 273 | 1.7 | 3.5 | 0.00 | 0.20 | 0.00 | 92 | 1012.8 |
| 20260507062035 | 59 | 248 | 1.7 | 3.5 | 0.00 | 0.20 | 0.00 | 92 | 1012.8 |
| 20260507061535 | 59 | 255 | 0.9 | 3.5 | 0.00 | 0.20 | 0.00 | 92 | 1012.9 |
| 20260507061034 | 58 | 259 | 0.0 | 2.6 | 0.00 | 0.20 | 0.00 | 92 | 1012.9 |
| 20260507060531 | 58 | 244 | 0.0 | 0.9 | 0.00 | 0.20 | 0.00 | 92 | 1012.8 |
| 20260507060030 | 58 | 244 | 0.0 | 0.0 | 0.00 | 0.20 | 0.00 | 92 | 1012.8 |
| 20260507055524 | 58 | 244 | 0.0 | 0.0 | 0.00 | 0.20 | 0.00 | 92 | 1012.7 |
| 20260507055024 | 57 | 244 | 0.0 | 0.0 | 0.00 | 0.20 | 0.00 | 92 | 1012.6 |
| 20260507054019 | 57 | 244 | 0.0 | 0.0 | 0.00 | 0.20 | 0.00 | 92 | 1012.5 |
| 20260507053518 | 57 | 279 | 0.0 | 0.0 | 0.00 | 0.20 | 0.00 | 92 | 1012.5 |
| 20260507053015 | 57 | 279 | 0.0 | 0.0 | 0.00 | 0.20 | 0.00 | 92 | 1012.4 |
| 20260507052515 | 57 | 280 | 0.0 | 0.0 | 0.00 | 0.20 | 0.00 | 92 | 1012.4 |
| 20260507052016 | 57 | 5 | 0.0 | 0.0 | 0.00 | 0.20 | 0.00 | 92 | 1012.4 |
| 20260507051513 | 56 | 5 | 0.0 | 0.0 | 0.00 | 0.21 | 0.00 | 92 | 1012.4 |
| 20260507051012 | 56 | 5 | 0.0 | 0.0 | 0.00 | 0.21 | 0.00 | 92 | 1012.4 |
| 20260507050511 | 56 | 5 | 0.0 | 0.0 | 0.00 | 0.21 | 0.00 | 92 | 1012.3 |
| 20260507050014 | 56 | 5 | 0.0 | 0.0 | 0.00 | 0.21 | 0.00 | 92 | 1012.3 |
| 20260507045007 | 56 | 5 | 0.0 | 0.9 | 0.00 | 0.21 | 0.00 | 92 | 1012.1 |
| 20260507044506 | 56 | 5 | 0.0 | 0.9 | 0.00 | 0.21 | 0.00 | 92 | 1012.1 |
| 20260507044003 | 56 | 5 | 0.0 | 0.9 | 0.00 | 0.21 | 0.00 | 92 | 1012.1 |
| 20260507043004 | 56 | 5 | 0.0 | 0.0 | 0.00 | 0.21 | 0.00 | 92 | 1011.9 |
| 20260507042503 | 56 | 5 | 0.0 | 0.0 | 0.00 | 0.21 | 0.00 | 92 | 1011.9 |
| 20260507042006 | 56 | 5 | 0.0 | 0.0 | 0.00 | 0.21 | 0.00 | 92 | 1011.8 |
| 20260507041501 | 56 | 5 | 0.0 | 0.0 | 0.00 | 0.21 | 0.00 | 92 | 1011.7 |
| 20260507040958 | 56 | 5 | 0.0 | 0.0 | 0.00 | 0.21 | 0.00 | 92 | 1011.7 |
| 20260507040457 | 55 | 5 | 0.0 | 0.0 | 0.00 | 0.21 | 0.00 | 92 | 1011.6 |
| 20260507035957 | 55 | 5 | 0.0 | 0.0 | 0.00 | 0.21 | 0.00 | 92 | 1011.6 |
| 20260507035455 | 55 | 5 | 0.0 | 0.0 | 0.00 | 0.21 | 0.00 | 92 | 1011.5 |
| 20260507034954 | 55 | 5 | 0.0 | 0.0 | 0.00 | 0.21 | 0.00 | 92 | 1011.6 |
| 20260507034451 | 55 | 5 | 0.0 | 0.0 | 0.00 | 0.21 | 0.00 | 92 | 1011.6 |
| 20260507033949 | 55 | 5 | 0.0 | 0.0 | 0.00 | 0.22 | 0.00 | 92 | 1011.5 |
| 20260507033447 | 55 | 5 | 0.0 | 0.0 | 0.00 | 0.23 | 0.00 | 92 | 1011.5 |
| 20260507031948 | 55 | 5 | 0.0 | 0.0 | 0.00 | 0.26 | 0.00 | 92 | 1011.4 |
| 20260507031447 | 55 | 5 | 0.0 | 0.9 | 0.00 | 0.27 | 0.00 | 92 | 1011.6 |
| 20260507030947 | 55 | 5 | 0.0 | 1.7 | 0.00 | 0.27 | 0.00 | 92 | 1011.5 |
| 20260507030448 | 55 | 5 | 0.9 | 2.6 | 0.00 | 0.27 | 0.00 | 92 | 1011.6 |
| 20260507025947 | 55 | 5 | 0.9 | 2.6 | 0.00 | 0.27 | 0.00 | 92 | 1011.5 |
| 20260507025448 | 55 | 344 | 0.9 | 2.6 | 0.00 | 0.27 | 0.00 | 92 | 1011.5 |
| 20260507024941 | 55 | 0 | 0.0 | 2.6 | 0.00 | 0.27 | 0.00 | 92 | 1011.4 |
| 20260507024437 | 55 | 34 | 0.0 | 2.6 | 0.00 | 0.27 | 0.00 | 92 | 1011.5 |
| 20260507023939 | 55 | 34 | 0.9 | 2.6 | 0.00 | 0.27 | 0.00 | 92 | 1011.4 |
| 20260507023437 | 55 | 5 | 0.0 | 2.6 | 0.00 | 0.27 | 0.00 | 92 | 1011.4 |
| 20260507022937 | 55 | 347 | 0.0 | 2.6 | 0.00 | 0.27 | 0.00 | 92 | 1011.4 |
| 20260507021935 | 55 | 328 | 0.0 | 0.9 | 0.00 | 0.27 | 0.00 | 92 | 1011.4 |
| 20260507021435 | 55 | 329 | 0.0 | 0.9 | 0.00 | 0.27 | 0.00 | 92 | 1011.3 |
| 20260507020935 | 55 | 329 | 0.0 | 0.9 | 0.00 | 0.27 | 0.00 | 92 | 1011.3 |
| 20260507015933 | 55 | 329 | 0.0 | 0.0 | 0.00 | 0.27 | 0.00 | 92 | 1011.4 |
| 20260507015431 | 56 | 329 | 0.0 | 1.7 | 0.00 | 0.27 | 0.00 | 92 | 1011.3 |
| 20260507014931 | 55 | 328 | 0.0 | 1.7 | 0.00 | 0.27 | 0.00 | 92 | 1011.3 |
| 20260507014432 | 56 | 329 | 0.0 | 1.7 | 0.00 | 0.27 | 0.00 | 92 | 1011.2 |
| 20260507013931 | 55 | 343 | 0.0 | 0.9 | 0.00 | 0.27 | 0.00 | 92 | 1011.2 |
| 20260507013431 | 55 | 350 | 0.0 | 0.0 | 0.00 | 0.27 | 0.00 | 92 | 1011.2 |
| 20260507012931 | 56 | 350 | 0.0 | 0.0 | 0.00 | 0.27 | 0.00 | 91 | 1011.2 |
| 20260507012431 | 56 | 350 | 0.0 | 0.0 | 0.00 | 0.27 | 0.00 | 91 | 1011.2 |
| 20260507011930 | 56 | 350 | 0.0 | 0.0 | 0.00 | 0.27 | 0.00 | 91 | 1011.2 |
| 20260507011431 | 56 | 350 | 0.0 | 0.0 | 0.00 | 0.27 | 0.00 | 92 | 1011.2 |
| 20260507010432 | 56 | 350 | 0.0 | 0.0 | 0.00 | 0.27 | 0.00 | 92 | 1011.3 |
| 20260507005931 | 56 | 350 | 0.0 | 0.0 | 0.00 | 0.27 | 0.00 | 92 | 1011.2 |
| 20260507005434 | 56 | 350 | 0.0 | 0.0 | 0.00 | 0.27 | 0.00 | 92 | 1011.4 |
| 20260507004930 | 56 | 350 | 0.0 | 1.7 | 0.00 | 0.27 | 0.00 | 92 | 1011.3 |
| 20260507004431 | 56 | 350 | 0.0 | 1.7 | 0.00 | 0.27 | 0.00 | 92 | 1011.4 |
| 20260507003932 | 56 | 350 | 0.0 | 1.7 | 0.00 | 0.27 | 0.00 | 91 | 1011.3 |
| 20260507003430 | 56 | 355 | 0.0 | 0.0 | 0.00 | 0.27 | 0.00 | 91 | 1011.3 |
| 20260507002931 | 56 | 355 | 0.0 | 0.0 | 0.00 | 0.27 | 0.00 | 91 | 1011.2 |
| 20260507002430 | 56 | 355 | 0.0 | 0.0 | 0.00 | 0.27 | 0.00 | 91 | 1011.3 |
| 20260507001931 | 56 | 355 | 0.0 | 0.0 | 0.00 | 0.27 | 0.00 | 91 | 1011.1 |
| 20260507001432 | 56 | 355 | 0.0 | 0.0 | 0.00 | 0.27 | 0.00 | 91 | 1011.0 |
| 20260507000931 | 56 | 355 | 0.0 | 0.0 | 0.00 | 0.27 | 0.00 | 91 | 1011.1 |
| 20260507000428 | 57 | 355 | 0.0 | 0.0 | 0.00 | 0.27 | 0.00 | 91 | 1011.1 |
| 20260506235417 | 57 | 355 | 0.0 | 1.7 | 0.00 | 0.27 | 0.00 | 91 | 1011.3 |
| 20260506234910 | 57 | 355 | 0.0 | 0.9 | 0.00 | 0.27 | 0.00 | 91 | 1011.3 |
| 20260506234403 | 57 | 355 | 0.0 | 0.9 | 0.00 | 0.27 | 0.00 | 91 | 1011.3 |
| 20260506233902 | 57 | 355 | 0.0 | 0.9 | 0.00 | 0.27 | 0.00 | 91 | 1011.2 |
| 20260506233403 | 57 | 355 | 0.0 | 0.0 | 0.00 | 0.27 | 0.00 | 91 | 1011.3 |
| 20260506232903 | 57 | 355 | 0.0 | 0.0 | 0.00 | 0.27 | 0.00 | 91 | 1011.2 |